This is the latest recevied weather packets stored in our database for station/object KV4OP. If no packets are shown the sender has not sent any weather packets the latest 10 day(s).
| Time | Temp. | Humidity | Pressure | Rain* | Wind** | Luminosity | Snow |
|---|---|---|---|---|---|---|---|
| 1788038453 | 30.56° C | 67% | 1018.2 hPa | 0 mm | - | - | - |
| 1788038144 | 30.56° C | 67% | 1018.1 hPa | 0 mm | - | - | - |
| 1788037844 | 31.11° C | 66% | 1017.5 hPa | 0 mm | - | - | - |
| 1788037545 | 31.11° C | 65% | 1017.2 hPa | 0 mm | - | - | - |
| 1788037252 | 31.67° C | 63% | 1017.4 hPa | 0 mm | - | - | - |
| 1788036944 | 31.67° C | 64% | 1017.7 hPa | 0 mm | - | - | - |
| 1788036644 | 32.22° C | 64% | 1017.8 hPa | 0 mm | - | - | - |
| 1788036344 | 31.67° C | 65% | 1017.6 hPa | 0 mm | - | - | - |
| 1788036052 | 31.67° C | 66% | 1017.5 hPa | 0 mm | - | - | - |
| 1788035744 | 31.67° C | 65% | 1017.3 hPa | 0 mm | - | - | - |
| 1788035446 | 32.22° C | 65% | 1017.3 hPa | 0 mm | - | - | - |
| 1788035144 | 32.78° C | 64% | 1017.3 hPa | 0 mm | - | - | - |
| 1788034853 | 32.78° C | 64% | 1017.5 hPa | 0 mm | - | - | - |
| 1788034544 | 32.78° C | 65% | 1017.6 hPa | 0 mm | - | - | - |
| 1788034244 | 32.78° C | 66% | 1017.7 hPa | 0 mm | - | - | - |
| 1788033944 | 32.78° C | 66% | 1017.8 hPa | 0 mm | - | - | - |
| 1788033654 | 32.22° C | 67% | 1018 hPa | 0 mm | - | - | - |
| 1788033344 | 32.22° C | 67% | 1017.9 hPa | 0 mm | - | - | - |
| 1788033044 | 31.67° C | 68% | 1018 hPa | 0.25 mm | - | - | - |
| 1788032744 | 31.11° C | 69% | 1018 hPa | 1.02 mm | - | - | - |
| 1788032453 | 31.11° C | 69% | 1018 hPa | 10.16 mm | - | - | - |
| 1788032144 | 30.56° C | 68% | 1018 hPa | 18.03 mm | - | - | - |
| 1788031844 | 30.56° C | 70% | 1018.3 hPa | 18.29 mm | - | - | - |
| 1788031545 | 30° C | 71% | 1018.4 hPa | 18.29 mm | - | - | - |
| 1788031253 | 30° C | 70% | 1018.4 hPa | 18.29 mm | - | - | - |
* Rain latest hour (hover to see other rain measurements)
** Current wind speed in m/s (hover to see current wind gust speed)